RAAVANA-1

Last updated on Wed Jul 07 2021 00:02:11 GMT+0000 (Coordinated Universal Time)

1 44329U 98067QE 21187.40602837 .00075417 00000-0 39960-3 0 9995 2 44329 51.6327 187.0770 0005905 20.3977 339.7259 15.79845363117159

Satellite not in orbit